{"data":{"norad_id":62421,"epoch":"2026-05-25T03:24:44.078112Z","epoch_age_seconds":63430,"freshness":"FRESH","line1":"1 62421U 24249N   26145.14217683  .00273949  00000+0  20571-2 0  9996","line2":"2 62421  43.0014  66.9117 0003458 265.2370  94.8103 15.70973101 81507","mean_motion":15.70973101,"eccentricity":0.0003458,"inclination_deg":43.0014,"raan_deg":66.9117,"arg_perigee_deg":265.237,"mean_anomaly_deg":94.8103,"bstar":0.0020571,"rev_number":8150,"period_min":91.662931662125,"perigee_km":353.78595663605,"apogee_km":358.4433650847,"semimajor_km":6734.2516608604,"source":"CELESTRAK","updated_at":"2026-05-25T13:38:19.654568Z"}}